{"data":{"norad_id":56057,"intl_designator":"2023-043M","name":"ONEWEB-0555","alt_names":[],"object_type":"PAYLOAD","status":"ACTIVE","operator":null,"country":"UK","launch_date":"2023-03-26","launch_site_code":"SRILR","launch_vehicle":null,"mission":null,"orbit_class":"UNKNOWN","rcs_meters":null,"size_class":null,"mass_kg":null,"dimensions":null,"purposes":["comms"],"wikipedia_slug":null,"has_3d_model":false,"image_url":null,"decayed_at":null,"tle_current":{"epoch":"2026-05-25T04:19:28.494624Z","epoch_age_seconds":63453,"freshness":"FRESH","line1":"1 56057U 23043M   26145.18019091  .00000036  00000+0  60258-4 0  9995","line2":"2 56057  87.9109 233.3387 0002497 110.5628 249.5771 13.16595998155937","mean_motion":13.16595998,"eccentricity":0.0002497,"inclination_deg":87.9109,"raan_deg":233.3387,"arg_perigee_deg":110.5628,"mean_anomaly_deg":249.5771,"bstar":6.0258e-5,"rev_number":15593,"period_min":109.37295891735,"perigee_km":1195.8582894588,"apogee_km":1199.6416874208,"semimajor_km":7575.8869884398,"source":"CELESTRAK","updated_at":"2026-05-25T13:38:22.702122Z"}}}